Time,TemperatureF,DewpointF,PressureIn,WindDirection,WindDirectionDegrees,WindSpeedMPH,WindSpeedGustMPH,Humidity,HourlyPrecipIn,Conditions,Clouds,dailyrainin,SoftwareType,DateUTC
2013-05-11 09:02:00,55.0,43.0,-100.00,ENE,59,2.0,-999.0,65,-99.99,,,0.00,,2013-05-11 16:02:00,
2013-05-11 09:12:00,55.0,43.0,-100.00,ENE,59,2.0,-999.0,65,-99.99,,,0.00,,2013-05-11 16:12:00,
2013-05-11 09:22:00,55.0,43.0,-100.00,ENE,59,2.0,-999.0,65,-99.99,,,0.00,,2013-05-11 16:22:00,
2013-05-11 09:32:00,55.0,43.0,-100.00,ENE,59,2.0,-999.0,65,-99.99,,,0.00,,2013-05-11 16:32:00,
2013-05-11 10:02:00,62.0,43.0,-100.00,NNW,347,2.0,6.0,49,0.00,,,0.00,,2013-05-11 17:02:00,
2013-05-11 10:12:00,62.0,43.0,-100.00,NNW,347,2.0,6.0,49,0.00,,,0.00,,2013-05-11 17:12:00,
2013-05-11 10:22:00,62.0,43.0,-100.00,NNW,347,2.0,6.0,49,0.00,,,0.00,,2013-05-11 17:22:00,
2013-05-11 10:31:00,62.0,43.0,-100.00,NNW,347,2.0,6.0,49,0.00,,,0.00,,2013-05-11 17:31:00,
2013-05-11 11:01:00,68.0,43.0,-100.00,NNE,33,3.0,7.0,40,0.00,,,0.00,,2013-05-11 18:01:00,
2013-05-11 11:11:00,68.0,43.0,-100.00,NNE,33,3.0,7.0,40,0.00,,,0.00,,2013-05-11 18:11:00,
2013-05-11 11:21:00,68.0,43.0,-100.00,NNE,33,3.0,7.0,40,0.00,,,0.00,,2013-05-11 18:21:00,
2013-05-11 11:32:00,68.0,43.0,-100.00,NNE,33,3.0,7.0,40,0.00,,,0.00,,2013-05-11 18:32:00,
2013-05-11 12:02:00,73.0,43.0,-100.00,ENE,71,3.0,8.0,34,0.00,,,-99.99,,2013-05-11 19:02:00,
2013-05-11 12:11:00,73.0,43.0,-100.00,ENE,71,3.0,8.0,34,0.00,,,-99.99,,2013-05-11 19:11:00,
2013-05-11 12:21:00,73.0,43.0,-100.00,ENE,71,3.0,8.0,34,0.00,,,-99.99,,2013-05-11 19:21:00,
2013-05-11 12:32:00,73.0,43.0,-100.00,ENE,71,3.0,8.0,34,0.00,,,-99.99,,2013-05-11 19:32:00,
2013-05-11 13:01:00,74.0,34.0,-100.00,NNE,25,4.0,12.0,23,0.00,,,0.00,,2013-05-11 20:01:00,
2013-05-11 13:12:00,74.0,34.0,-100.00,NNE,25,4.0,12.0,23,0.00,,,0.00,,2013-05-11 20:12:00,
2013-05-11 13:22:00,74.0,34.0,-100.00,NNE,25,4.0,12.0,23,0.00,,,0.00,,2013-05-11 20:22:00,
2013-05-11 13:32:00,74.0,34.0,-100.00,NNE,25,4.0,12.0,23,0.00,,,0.00,,2013-05-11 20:32:00,
2013-05-11 14:02:00,77.0,34.0,-100.00,North,353,4.0,12.0,21,0.00,,,0.00,,2013-05-11 21:02:00,
2013-05-11 14:11:00,77.0,34.0,-100.00,North,353,4.0,12.0,21,0.00,,,0.00,,2013-05-11 21:11:00,
2013-05-11 14:21:00,77.0,34.0,-100.00,North,353,4.0,12.0,21,0.00,,,0.00,,2013-05-11 21:21:00,
2013-05-11 14:33:00,77.0,34.0,-100.00,North,353,4.0,12.0,21,0.00,,,0.00,,2013-05-11 21:33:00,
2013-05-11 15:02:00,74.0,33.0,-100.00,NNE,24,3.0,13.0,22,0.00,,,0.00,,2013-05-11 22:02:00,
2013-05-11 15:12:00,74.0,33.0,-100.00,NNE,24,3.0,13.0,22,0.00,,,0.00,,2013-05-11 22:12:00,
2013-05-11 15:22:00,74.0,33.0,-100.00,NNE,24,3.0,13.0,22,0.00,,,0.00,,2013-05-11 22:22:00,
2013-05-11 15:33:00,74.0,33.0,-100.00,NNE,24,3.0,13.0,22,0.00,,,0.00,,2013-05-11 22:33:00,
2013-05-11 16:02:00,72.0,37.0,-100.00,WSW,249,2.0,12.0,28,0.00,,,0.00,,2013-05-11 23:02:00,
2013-05-11 16:11:00,72.0,37.0,-100.00,WSW,249,2.0,12.0,28,0.00,,,0.00,,2013-05-11 23:11:00,
2013-05-11 16:22:00,72.0,37.0,-100.00,WSW,249,2.0,12.0,28,0.00,,,0.00,,2013-05-11 23:22:00,
2013-05-11 16:31:00,72.0,37.0,-100.00,WSW,249,2.0,12.0,28,0.00,,,0.00,,2013-05-11 23:31:00,
2013-05-11 17:01:00,71.0,37.0,-100.00,West,259,2.0,8.0,29,0.00,,,0.00,,2013-05-12 00:01:00,
2013-05-11 17:11:00,71.0,37.0,-100.00,West,259,2.0,8.0,29,0.00,,,0.00,,2013-05-12 00:11:00,
2013-05-11 17:21:00,71.0,37.0,-100.00,West,259,2.0,8.0,29,0.00,,,0.00,,2013-05-12 00:21:00,
2013-05-11 17:32:00,71.0,37.0,-100.00,West,259,2.0,8.0,29,0.00,,,0.00,,2013-05-12 00:32:00,
2013-05-11 18:01:00,72.0,39.0,-100.00,WSW,258,3.0,11.0,30,0.00,,,0.00,,2013-05-12 01:01:00,
2013-05-11 18:11:00,72.0,39.0,-100.00,WSW,258,3.0,11.0,30,0.00,,,0.00,,2013-05-12 01:11:00,
2013-05-11 18:21:00,72.0,39.0,-100.00,WSW,258,3.0,11.0,30,0.00,,,0.00,,2013-05-12 01:21:00,
2013-05-11 18:31:00,72.0,39.0,-100.00,WSW,258,3.0,11.0,30,0.00,,,0.00,,2013-05-12 01:31:00,
2013-05-11 19:01:00,68.0,37.0,-100.00,SW,221,3.0,10.0,32,0.00,,,0.00,,2013-05-12 02:01:00,
2013-05-11 19:11:00,68.0,37.0,-100.00,SW,221,3.0,10.0,32,0.00,,,0.00,,2013-05-12 02:11:00,
2013-05-11 19:22:00,68.0,37.0,-100.00,SW,221,3.0,10.0,32,0.00,,,0.00,,2013-05-12 02:22:00,
2013-05-11 19:31:00,68.0,37.0,-100.00,SW,221,3.0,10.0,32,0.00,,,0.00,,2013-05-12 02:31:00,
2013-05-11 20:01:00,64.0,40.0,-100.00,SW,222,2.0,10.0,42,0.00,,,0.00,,2013-05-12 03:01:00,
2013-05-11 20:11:00,64.0,40.0,-100.00,SW,222,2.0,10.0,42,0.00,,,0.00,,2013-05-12 03:11:00,
2013-05-11 20:21:00,64.0,40.0,-100.00,SW,222,2.0,10.0,42,0.00,,,0.00,,2013-05-12 03:21:00,
2013-05-11 20:32:00,64.0,40.0,-100.00,SW,222,2.0,10.0,42,0.00,,,0.00,,2013-05-12 03:32:00,